PA3DZX-13 Weather Reports


time (UTC)temp
C
wind
direction
speed
KPH
gust
KPH
rain 1hr
cm
rain 24hr
cm
rain mn
cm
humidity
%
barometer
mb
20260903060910 16 215 17.7 27.4 0.00 0.00 0.00 77 1015.6
20260903055409 16 211 17.7 24.1 0.00 0.00 0.00 77 1015.6
20260903053910 16 207 12.9 24.1 0.00 0.00 0.00 79 1015.6
20260903052409 15 213 12.9 24.1 0.00 0.00 0.00 83 1015.4
20260903050909 15 206 17.7 35.4 0.00 0.00 0.00 82 1015.5
20260903045409 16 205 12.9 24.1 0.00 0.00 0.00 78 1015.6
20260903043908 16 202 12.9 24.1 0.00 0.00 0.00 79 1015.5
20260903042408 16 204 12.9 24.1 0.00 0.00 0.00 80 1015.6
20260903040907 15 195 12.9 20.9 0.00 0.00 0.00 80 1015.9
20260903035407 15 189 12.9 20.9 0.00 0.00 0.00 80 1015.9
20260903033907 15 196 12.9 24.1 0.00 0.00 0.00 81 1016.4
20260903032407 15 198 12.9 27.4 0.00 0.00 0.00 82 1016.4
20260903030907 15 200 12.9 24.1 0.00 0.00 0.00 81 1016.4
20260903025407 15 201 12.9 24.1 0.00 0.00 0.00 82 1016.6
20260903023907 15 197 6.4 17.7 0.00 0.00 0.00 86 1016.8
20260903022407 15 197 6.4 17.7 0.00 0.00 0.00 86 1016.8
20260903020907 15 210 17.7 38.6 0.00 0.00 0.00 83 1017.0
20260903015407 15 211 9.7 24.1 0.00 0.00 0.00 80 1017.4
20260903013905 16 214 12.9 20.9 0.00 0.00 0.00 79 1017.3
20260903012405 16 214 12.9 20.9 0.00 0.00 0.00 79 1017.5
20260903010905 16 224 17.7 27.4 0.00 0.00 0.00 74 1017.8
20260903005405 16 212 9.7 20.9 0.00 0.00 0.00 74 1017.7
20260903003904 16 214 17.7 27.4 0.00 0.00 0.00 73 1017.8
20260903002405 16 206 17.7 24.1 0.00 0.00 0.00 72 1017.8
20260903000903 16 194 9.7 17.7 0.00 0.00 0.00 75 1017.9
20260902235403 16 191 9.7 17.7 0.00 0.00 0.00 76 1018.0
20260902233903 16 195 9.7 20.9 0.00 0.00 0.00 75 1018.1
20260902232403 15 179 9.7 12.9 0.00 0.00 0.00 82 1018.2
20260902230903 15 176 9.7 12.9 0.00 0.00 0.00 83 1018.3
20260902225404 15 178 9.7 12.9 0.00 0.00 0.00 83 1018.7
20260902223902 15 173 6.4 12.9 0.00 0.00 0.00 86 1018.8
20260902222403 15 174 6.4 12.9 0.00 0.00 0.00 87 1018.9
20260902220902 15 189 6.4 12.9 0.08 0.00 0.00 86 1019.0
20260902215402 15 194 6.4 12.9 0.03 0.00 0.00 85 1019.0
20260902213901 15 196 6.4 9.7 0.00 0.00 0.00 82 1019.1
20260902212401 15 191 6.4 9.7 0.00 0.00 0.00 82 1019.0
20260902210901 15 197 6.4 9.7 0.00 0.00 0.00 82 1019.2
20260902205359 15 201 6.4 9.7 0.00 0.00 0.00 82 1019.2
20260902203859 15 199 6.4 12.9 0.00 0.00 0.00 83 1019.3
20260902202358 15 196 6.4 9.7 0.00 0.00 0.00 83 1019.3
20260902200857 15 201 6.4 12.9 0.00 0.00 0.00 83 1019.4
20260902195356 16 196 6.4 12.9 0.00 0.00 0.00 83 1019.4
20260902193855 15 197 6.4 12.9 0.00 0.00 0.00 84 1019.5
20260902192355 16 187 6.4 9.7 0.00 0.00 0.00 83 1019.5
20260902190855 16 192 9.7 17.7 0.00 0.00 0.00 82 1019.6
20260902185355 16 205 12.9 20.9 0.05 0.00 0.00 78 1019.6
20260902183855 17 205 6.4 9.7 0.00 0.00 0.00 74 1019.6
20260902182355 16 201 3.2 6.4 0.00 0.00 0.00 75 1019.4
20260902180854 17 210 6.4 9.7 0.00 0.00 0.00 72 1019.2
20260902175354 17 211 3.2 6.4 0.00 0.00 0.00 72 1019.2
20260902173854 17 225 6.4 9.7 0.00 0.00 0.00 69 1019.2
20260902172353 17 222 6.4 17.7 0.00 0.00 0.00 69 1019.3
20260902170853 18 244 12.9 17.7 0.00 0.00 0.00 64 1019.2
20260902165352 20 238 9.7 17.7 0.00 0.00 0.00 58 1019.2
20260902163852 18 233 9.7 17.7 0.00 0.00 0.00 59 1019.4
20260902162352 18 235 6.4 12.9 0.00 0.00 0.00 61 1019.4
20260902160850 17 225 6.4 17.7 0.00 0.00 0.00 64 1019.6
20260902155350 17 216 9.7 17.7 0.00 0.00 0.00 61 1019.6
20260902153849 17 222 9.7 27.4 0.00 0.00 0.00 61 1019.6
20260902152348 17 244 17.7 27.4 0.00 0.00 0.00 62 1019.9
20260902150848 18 257 27.4 35.4 0.00 0.00 0.00 64 1019.9
20260902145348 18 265 20.9 35.4 0.00 0.00 0.00 63 1019.8
20260902143847 20 273 12.9 20.9 0.00 0.00 0.00 59 1019.6
20260902142346 20 233 17.7 24.1 0.00 0.00 0.00 62 1019.4
20260902140845 20 223 17.7 27.4 0.00 0.00 0.00 60 1019.6
20260902135344 20 223 17.7 27.4 0.00 0.00 0.00 60 1019.6
20260902133844 20 223 17.7 27.4 0.00 0.00 0.00 60 1019.6
20260902132343 20 223 17.7 27.4 0.00 0.00 0.00 60 1019.6
20260902130842 20 223 17.7 27.4 0.00 0.00 0.00 60 1019.6
20260902125341 20 223 17.7 27.4 0.00 0.00 0.00 60 1019.6
20260902123841 20 223 17.7 27.4 0.00 0.00 0.00 60 1019.6
20260902122341 20 229 17.7 27.4 0.00 0.00 0.00 57 1019.6
20260902120840 20 226 17.7 24.1 0.00 0.00 0.00 59 1019.6
20260902115340 20 222 17.7 20.9 0.00 0.00 0.00 58 1019.6
20260902113839 20 231 12.9 27.4 0.00 0.00 0.00 56 1019.8
20260902112338 20 231 12.9 27.4 0.00 0.00 0.00 56 1019.8
20260902110836 20 224 12.9 24.1 0.00 0.00 0.00 56 1020.0
20260902105336 20 229 17.7 24.1 0.00 0.00 0.00 56 1020.0
20260902103835 20 226 17.7 27.4 0.00 0.00 0.00 54 1020.0
20260902102334 20 226 17.7 27.4 0.00 0.00 0.00 54 1020.0
20260902100834 20 238 17.7 27.4 0.00 0.00 0.00 57 1020.0
20260902095333 20 222 17.7 24.1 0.00 0.00 0.00 59 1020.0
20260902093833 20 233 17.7 24.1 0.00 0.00 0.00 61 1019.9
20260902092332 18 231 17.7 27.4 0.00 0.00 0.00 64 1019.9
20260902090831 18 224 12.9 27.4 0.00 0.00 0.00 64 1019.9
20260902085331 17 237 12.9 24.1 0.00 0.00 0.00 66 1019.8
20260902083830 17 227 12.9 20.9 0.00 0.00 0.00 68 1019.7
20260902082330 16 213 9.7 17.7 0.00 0.00 0.00 74 1019.7
20260902080830 16 215 9.7 17.7 0.00 0.00 0.00 73 1019.7
20260902075329 15 208 6.4 12.9 0.00 0.00 0.00 80 1019.7
20260902073828 15 200 6.4 12.9 0.00 0.00 0.00 82 1019.7
20260902072327 13 194 6.4 9.7 0.00 0.00 0.00 84 1019.6
20260902070827 13 189 3.2 6.4 0.00 0.00 0.00 88 1019.5
20260902065326 13 189 3.2 6.4 0.00 0.00 0.00 88 1019.5
20260902063825 12 195 3.2 6.4 0.00 0.00 0.00 89 1019.5
20260902062324 12 176 3.2 6.4 0.00 0.00 0.00 90 1019.6